• In Germany
  • List of Countries
  • For 7 days
  • Water Temperature
  • Satellite Maps
  • Weather Map
  • Weather Widgets
  • user-avatar
    Login

    Hourly Weather Kołobrzeg

    Today, 13 December, Wednesday

    Time Temperature Precipitation Wind Pressure Humidity
    00:00 -1°C° 0 mm 8 mps 755 mmHg 83%
    01:00 -2°C° 0 mm 7 mps 756 mmHg 87%
    02:00 -2°C° 0 mm 8 mps 756 mmHg 88%
    03:00 -2°C° 0 mm 8 mps 757 mmHg 89%
    04:00 -2°C° 0 mm 8 mps 757 mmHg 90%
    05:00 -2°C° 0 mm 8 mps 757 mmHg 89%
    06:00 -2°C° 0 mm 8 mps 757 mmHg 88%
    07:00 -2°C° 0 mm 7 mps 757 mmHg 87%
    08:00 -2°C° 0 mm 7 mps 757 mmHg 86%
    09:00 -2°C° 0 mm 8 mps 757 mmHg 85%
    10:00 -2°C° 0 mm 8 mps 757 mmHg 83%
    11:00 -1°C° 0 mm 9 mps 756 mmHg 80%
    12:00 -1°C° 0 mm 9 mps 756 mmHg 77%
    13:00 0°C° 0 mm 9 mps 755 mmHg 73%
    14:00 -1°C° 0 mm 9 mps 754 mmHg 74%
    15:00 -2°C° 0 mm 10 mps 753 mmHg 75%
    16:00 -2°C° 0 mm 10 mps 753 mmHg 76%
    17:00 -2°C° 0 mm 10 mps 752 mmHg 75%
    18:00 -2°C° 0 mm 11 mps 751 mmHg 75%
    19:00 -2°C° 0 mm 11 mps 750 mmHg 75%
    20:00 -2°C° 0 mm 11 mps 748 mmHg 74%
    21:00 -2°C° 0 mm 11 mps 747 mmHg 73%
    22:00 -2°C° 0 mm 11 mps 746 mmHg 72%
    23:00 -2°C° 0.1 mm 11 mps 745 mmHg 74%

    Tomorrow, 14 December, Thursday

    Time Temperature Precipitation Wind Pressure Humidity
    00:00 -2°C° 0.1 mm 11 mps 744 mmHg 76%
    01:00 -2°C° 0.1 mm 11 mps 743 mmHg 78%
    02:00 -2°C° 0.1 mm 11 mps 742 mmHg 78%
    03:00 -1°C° 0.1 mm 11 mps 740 mmHg 78%
    04:00 -1°C° 0.1 mm 11 mps 739 mmHg 78%
    05:00 -1°C° 0.7 mm 11 mps 738 mmHg 79%
    06:00 -1°C° 0.7 mm 11 mps 737 mmHg 81%
    07:00 +1°C° 0.7 mm 11 mps 737 mmHg 83%
    08:00 +1°C° 0.4 mm 11 mps 737 mmHg 82%
    09:00 +1°C° 0.4 mm 10 mps 737 mmHg 82%
    10:00 +1°C° 0.4 mm 9 mps 738 mmHg 82%
    11:00 +1°C° 0 mm 9 mps 738 mmHg 81%
    12:00 +1°C° 0 mm 9 mps 739 mmHg 80%
    13:00 +1°C° 0 mm 9 mps 740 mmHg 79%
    14:00 +1°C° 0 mm 9 mps 740 mmHg 78%
    15:00 0°C° 0 mm 9 mps 741 mmHg 78%
    16:00 0°C° 0 mm 9 mps 741 mmHg 78%
    17:00 0°C° 0.1 mm 9 mps 742 mmHg 77%
    18:00 0°C° 0.1 mm 9 mps 742 mmHg 77%
    19:00 -1°C° 0.1 mm 9 mps 742 mmHg 77%
    20:00 -1°C° 0 mm 9 mps 742 mmHg 78%
    21:00 -1°C° 0 mm 9 mps 742 mmHg 79%
    22:00 -1°C° 0 mm 9 mps 742 mmHg 80%
    23:00 -1°C° 0 mm 9 mps 741 mmHg 82%

    Day after tomorrow, 15 December, Friday

    Time Temperature Precipitation Wind Pressure Humidity
    00:00 -1°C° 0 mm 9 mps 741 mmHg 84%
    01:00 -3°C° 0 mm 9 mps 741 mmHg 86%
    02:00 -3°C° 0 mm 9 mps 741 mmHg 88%
    03:00 -3°C° 0 mm 9 mps 741 mmHg 89%
    04:00 -2°C° 0 mm 8 mps 741 mmHg 90%
    05:00 -2°C° 0 mm 8 mps 741 mmHg 91%
    06:00 -2°C° 0 mm 8 mps 741 mmHg 91%
    07:00 -4°C° 0 mm 8 mps 741 mmHg 92%
    08:00 -2°C° 0 mm 8 mps 741 mmHg 90%
    09:00 -2°C° 0 mm 8 mps 741 mmHg 89%
    10:00 -3°C° 0 mm 9 mps 741 mmHg 87%
    11:00 -1°C° 0.1 mm 9 mps 741 mmHg 86%
    12:00 -2°C° 0.1 mm 10 mps 742 mmHg 84%
    13:00 0°C° 0.1 mm 10 mps 742 mmHg 82%
    14:00 0°C° 0.3 mm 10 mps 742 mmHg 82%
    15:00 0°C° 0.3 mm 10 mps 743 mmHg 83%
    16:00 0°C° 0.3 mm 10 mps 743 mmHg 83%
    17:00 0°C° 0.1 mm 9 mps 744 mmHg 83%
    18:00 0°C° 0.1 mm 9 mps 744 mmHg 84%
    19:00 0°C° 0.1 mm 9 mps 745 mmHg 84%
    20:00 0°C° 0 mm 9 mps 745 mmHg 84%
    21:00 0°C° 0 mm 9 mps 746 mmHg 85%
    22:00 -1°C° 0 mm 8 mps 746 mmHg 85%
    23:00 -1°C° 0 mm 8 mps 746 mmHg 86%

    16 December, Saturday

    Time Temperature Precipitation Wind Pressure Humidity
    00:00 -1°C° 0 mm 8 mps 746 mmHg 87%
    01:00 -1°C° 0 mm 7 mps 746 mmHg 88%
    02:00 -2°C° 0 mm 7 mps 746 mmHg 89%
    03:00 -2°C° 0 mm 7 mps 746 mmHg 90%
    04:00 -2°C° 0 mm 6 mps 747 mmHg 91%
    05:00 -2°C° 0 mm 6 mps 747 mmHg 91%
    06:00 -2°C° 0 mm 6 mps 747 mmHg 92%
    07:00 -2°C° 0 mm 6 mps 747 mmHg 93%
    08:00 -2°C° 0 mm 6 mps 747 mmHg 92%
    09:00 -2°C° 0 mm 6 mps 747 mmHg 91%
    10:00 -2°C° 0 mm 7 mps 747 mmHg 90%
    11:00 -1°C° 0 mm 7 mps 748 mmHg 88%
    12:00 -1°C° 0 mm 7 mps 748 mmHg 86%
    13:00 -1°C° 0 mm 7 mps 748 mmHg 83%
    14:00 -1°C° 0.2 mm 7 mps 748 mmHg 83%
    15:00 -1°C° 0.2 mm 7 mps 749 mmHg 82%
    16:00 -1°C° 0.2 mm 7 mps 749 mmHg 81%
    17:00 -1°C° 0.2 mm 7 mps 750 mmHg 82%
    18:00 -1°C° 0.2 mm 7 mps 750 mmHg 83%
    19:00 -1°C° 0.2 mm 7 mps 751 mmHg 83%
    20:00 -2°C° 0.1 mm 7 mps 751 mmHg 85%
    21:00 -2°C° 0.1 mm 6 mps 752 mmHg 88%
    22:00 -3°C° 0.1 mm 6 mps 752 mmHg 90%
    23:00 -3°C° 0.1 mm 6 mps 752 mmHg 91%

    17 December, Sunday

    Time Temperature Precipitation Wind Pressure Humidity
    00:00 -3°C° 0.1 mm 6 mps 753 mmHg 92%
    01:00 -3°C° 0.1 mm 6 mps 753 mmHg 93%
    02:00 -3°C° 0.1 mm 6 mps 753 mmHg 91%
    03:00 -3°C° 0.1 mm 6 mps 753 mmHg 90%
    04:00 -2°C° 0.1 mm 6 mps 754 mmHg 88%
    05:00 -2°C° 0.2 mm 6 mps 754 mmHg 87%
    06:00 -2°C° 0.2 mm 6 mps 755 mmHg 85%
    07:00 -2°C° 0.2 mm 6 mps 755 mmHg 84%
    08:00 -2°C° 0.2 mm 6 mps 756 mmHg 84%
    09:00 -1°C° 0.2 mm 6 mps 756 mmHg 84%
    10:00 -1°C° 0.2 mm 6 mps 757 mmHg 84%
    11:00 -1°C° 0.1 mm 6 mps 758 mmHg 82%
    12:00 -1°C° 0.1 mm 6 mps 758 mmHg 81%
    13:00 -1°C° 0.1 mm 6 mps 759 mmHg 79%
    14:00 -1°C° 0.1 mm 6 mps 759 mmHg 81%
    15:00 -2°C° 0.1 mm 6 mps 760 mmHg 82%
    16:00 -2°C° 0.1 mm 6 mps 760 mmHg 83%
    17:00 -2°C° 0 mm 6 mps 761 mmHg 84%
    18:00 -1°C° 0 mm 5 mps 762 mmHg 84%
    19:00 -1°C° 0 mm 5 mps 762 mmHg 84%
    20:00 -1°C° 0 mm 4 mps 763 mmHg 84%
    21:00 -1°C° 0 mm 4 mps 763 mmHg 84%
    22:00 -2°C° 0 mm 4 mps 764 mmHg 84%
    23:00 -1°C° 0 mm 4 mps 764 mmHg 84%

    18 December, Monday

    Time Temperature Precipitation Wind Pressure Humidity
    00:00 0°C° 0 mm 3 mps 764 mmHg 83%
    01:00 0°C° 0 mm 3 mps 764 mmHg 83%
    02:00 0°C° 0 mm 3 mps 764 mmHg 83%
    03:00 0°C° 0 mm 3 mps 764 mmHg 84%
    04:00 0°C° 0 mm 3 mps 764 mmHg 85%
    05:00 -1°C° 0 mm 3 mps 764 mmHg 87%
    06:00 -1°C° 0 mm 3 mps 764 mmHg 89%
    07:00 -1°C° 0 mm 3 mps 764 mmHg 91%
    08:00 -1°C° 0 mm 3 mps 764 mmHg 91%
    09:00 -1°C° 0 mm 3 mps 764 mmHg 91%
    10:00 -1°C° 0 mm 3 mps 764 mmHg 90%
    11:00 -1°C° 0 mm 3 mps 764 mmHg 89%
    12:00 -1°C° 0 mm 3 mps 764 mmHg 88%
    13:00 0°C° 0 mm 3 mps 764 mmHg 87%
    14:00 -1°C° 0 mm 2 mps 764 mmHg 89%
    15:00 -1°C° 0 mm 2 mps 764 mmHg 90%
    16:00 -1°C° 0 mm 2 mps 765 mmHg 92%
    17:00 -1°C° 0 mm 2 mps 765 mmHg 92%
    18:00 -1°C° 0 mm 2 mps 766 mmHg 92%
    19:00 -1°C° 0 mm 2 mps 766 mmHg 93%
    20:00 -2°C° 0 mm 2 mps 767 mmHg 92%
    21:00 -2°C° 0 mm 2 mps 767 mmHg 92%
    22:00 0°C° 0 mm 1 mps 768 mmHg 92%
    23:00 0°C° 0 mm 1 mps 768 mmHg 92%
    Show more